Meteo Giornale » Osservazioni meteo Stati Uniti (USA) » Pittsburgh
ore: 16:51 - Osservazioni Meteo Pittsburgh
Lat. 40° 30' N Lon. 80° 15' W Alt. 366 metri s.l.m.
28 °C
Molto Nuvoloso
Temp. 24 Ore
20 °C
28 °C
Nord
0 Km/h
Dew point 22 °C
Umidità 69 %
Visibilità 10 Km
Il sole sorge alle ore 06:47
Il sole tramonta alle ore 19:54
| Data e Ora | Cielo e Fenomeni | T °C | DP °C | Um. % | Pres. hPa | Vis. km | Vento km/h | |
|---|---|---|---|---|---|---|---|---|
| Oggi h: 16:51 | Molto Nuvoloso | 28 | 22 | 69 | 1018 | 10 | N 0 | |
| Oggi h: 15:51 | Molto Nuvoloso | 27 | 21 | 69 | 1019 | 10 | S/SO 7.4 | |
| Oggi h: 14:51 | Coperto | 27 | 21 | 69 | 1019 | 10 | SO 9.3 | |
| Oggi h: 13:51 | Coperto | 26 | 21 | 73 | 1020 | 10 | O/SO 9.3 | |
| Oggi h: 12:51 | Coperto | 27 | 21 | 69 | 1020 | 10 | O/SO 9.3 | |
| Oggi h: 11:51 | Molto Nuvoloso | 26 | 21 | 73 | 1020 | 10 | S 11.1 | |
| Oggi h: 10:51 | Coperto | 23 | 20 | 83 | 1020 | 10 | S 9.3 | |
| Oggi h: 09:51 | Coperto | 22 | 19 | 83 | 1020 | 10 | N 0 | |
| Oggi h: 08:51 | Coperto | 21 | 18 | 82 | 1020 | 10 | N 0 | |
| Oggi h: 07:51 | Coperto | 21 | 18 | 82 | 1020 | 10 | N 0 | |
| Oggi h: 06:51 | Coperto | 21 | 18 | 82 | 1019 | 10 | N 5.5 | |
| Oggi h: 05:51 | Coperto | 20 | 18 | 88 | 1019 | 10 | N 0 | |
| Oggi h: 04:51 | Molto Nuvoloso | 21 | 18 | 82 | 1019 | 10 | S 7.4 | |
| Oggi h: 03:51 | Molto Nuvoloso | 21 | 18 | 82 | 1019 | 10 | N 5.5 | |
| Oggi h: 02:51 | Molto Nuvoloso | 21 | 18 | 82 | 1019 | 10 | N 5.5 | |
| Oggi h: 01:51 | Pioggia | 21 | 18 | 82 | 1020 | 10 | E 7.4 | |
| Oggi h: 00:51 | Molto Nuvoloso | 22 | 18 | 78 | 1020 | 10 | SE 9.3 | |
| Ieri h: 23:51 | Coperto | 22 | 18 | 78 | 1020 | 10 | E/SE 13 | |
| Ieri h: 22:51 | Coperto | 23 | 18 | 73 | 1021 | 10 | N/NE 13 | |
| Ieri h: 21:51 | Molto Nuvoloso | 24 | 18 | 69 | 1021 | 10 | N/NE 9.3 | |
| Ieri h: 20:51 | Coperto | 23 | 18 | 73 | 1020 | 10 | N 0 | |
| Ieri h: 19:51 | Coperto | 24 | 18 | 69 | 1019 | 10 | E 9.3 | |
| Ieri h: 18:51 | Coperto | 26 | 18 | 61 | 1019 | 10 | E/NE 7.4 | |
| Ieri h: 17:51 | Coperto | 26 | 19 | 65 | 1019 | 10 | E/NE 9.3 | |



